Погода Двинский Березник

Поиск расширенной информации на нашем сайте:

Полезная информация:

Новости сайта



02.01.2020
Опубликован Долгосрочный прогноз погоды по городам России и ближнего зарубежья на январь 2020 года.
Карты: Прогноз на январь и февраль 2020 года, Сравнение прогнозируемой аномалии приземной температуры воздуха на январь 2020 года по разным моделям.




Погода Двинский Березник - сегодня

Время (UTC), дата Ветер
(°,м/с) 
Видим.   Явления Облачность Т
(°С)
Тd
(°С)
f(%) Тe
(°С)
Pmin
(гПа)
dP
(гПа)
Po
(мм)
O2
(г/м3)
Тmin Tmax R s Состояние
почвы
18 29.11.20 140 (ЮВ) 10 км    10/10 150 м 
[St]
-8.2 -9.2 92 -10  1040.2  -0.5  777  324           
21 29.11.20 130 (ЮВ) 10 км    10/10 210 м 
[St]
-7.2 -8.2 93 -9  1039.3  -0.8  776  322           
00 30.11.20 130 (ЮВ) 10 км    10/10 210 м 
[St]
-6.3 -7.3 93 -6  1038.1  -1.2  776  321           
03 30.11.20 130 (ЮВ) 10 км    10/10 210 м 
[St]
-4.9 -5.9 93 -6  1037.1  -1  775  319  -9.2      равномерный
сухой снег
100% 
06 30.11.20 140 (ЮВ) 10 км    10/10 360 м 
[Sc]
-3.9 -4.6 95 -5  1036.1  -0.9  774  317           
09 30.11.20 140 (ЮВ) 10 км    10/10 150 м 
[St]
-2.9 -3.6 95 -4  1035.4  -0.7  774  316           
12 30.11.20 130 (ЮВ) н/о    н/о 
-2.1 -3 94 -3  1033.6  -1.8  772  314           
15 30.11.20 140 (ЮВ) 10 км    4/4 300 м 
[St]
-2.3 -3.2 94 -4  1031.6  -1.9  771  314    -2       
18 30.11.20 140 (ЮВ) 10 км    10/8 330 м средняя 
[Sc|Ac As]
-1.1 -2.4 91 -3  1029.6  -2  769  312           
21 30.11.20 140 (ЮВ) 4000 м  дождь со снегом  10/8 330 м средняя 
[Sc|Ac As]
-0.6 -1.5 94 -2  1028.5  -1.1  768  310           
00 01.12.20 160 (Ю) 10 км  {снег}  10/10 360 м 
[Sc]
+0.3 -1 91 -1  1027.7  -0.8  768  309           
03 01.12.20 160 (Ю) 10 км    10/8 480 м средняя 
[Sc|Ac As]
+0.4 -1.2 89 -1  1027.1  -0.6  767  309  -2.3    0.0  равномерный
сухой снег
100% 
06 01.12.20 160 (Ю) 4000 м  слаб. снег  10/8 330 м средняя 
[Sc|Ac As]
-0.6 -1.4 94 -2  1027  0.1  767  310           
09 01.12.20 160 (Ю) 4000 м  слаб. снег  10/10 300 м 
[Sc|Ac As]
-1.6 -2.6 93 -4  1027.2  0.2  767  311           
12 01.12.20 170 (Ю) 2000 м  снег  10/10 300 м 
[Frnb|Ns]
-2.5 -3.5 93 -5  1026.6  -0.6  767  312           
15 01.12.20 170 (Ю) 10 км  в посл. час снег  10/0 средняя 
[Ac As]
-2.4 -3.9 89 -4  1027.1  0.6  767  312    +0.4     
18 01.12.20 180 (Ю) 4000 м  слаб. снег  10/6 500 м средняя 
[Sc|Ac As]
-1.9 -3.5 89 -4  1027.2  0.1  767  312           
21 01.12.20 170 (Ю) 10 км  {снег}  10/8 330 м средняя 
[Sc|Ac As]
-1.7 -3.3 89 -3  1027.8  0.6  768  312           
00 02.12.20 160 (Ю) 3{10}  4000 м  слаб. снег  10/8 270 м средняя 
[Frnb|Ac As]
-1.6 -3.2 89 -4  1027.4  -0.4  768  312           
03 02.12.20 180 (Ю) 4000 м  слаб. снег  10/0 средняя 
[Ac As]
-1.8 -2.6 94 -3  1027.1  -0.4  767  312  -2.4    0.5  равномерный
сухой снег
100% 
06 02.12.20 190 (Ю) 4000 м  дымка  10/4 600 м средняя 
[Sc|Ac As]
-1.2 -2.2 93 -2  1027.9  0.7  768  311           
09 02.12.20 220 (ЮЗ) 10 км  в посл. час снег  10/0 средняя 
[Ac As]
-0.1 -1.5 90 +1  1029.5  1.6  769  310           
12 02.12.20 210 (ЮЗ) 4000 м  дымка{снег}  10/10 240 м 
[St]
+0.1 -1.2 91 -1  1030.6  1.1  770  310           
15 02.12.20 190 (Ю) 4000 м  слаб. снег  10/8 300 м средняя 
[Frnb|As op]
-0.2 -1.1 94 1031.3  0.6  770  311    +0.2  0.2     
18 02.12.20 180 (Ю) 4000 м  слаб. снег  10/0 средняя 
[Ac As]
-0.1 -1 94 +1  1031.9  0.6  771  311           
Время (UTC), дата Ветер
(°,м/с) 
Видим.   Явления Облачность Т
(°С)
Тd
(°С)
f(%) Тe
(°С)
Pmin
(гПа)
dP
(гПа)
Po
(мм)
O2
(г/м3)
Тmin Tmax R s Состояние
почвы

Для получения пояснительной информации подведите курсор к названию столбца.

ПОГОДА Двинский Березник - архив

Всё, что Вы хотите узнать о погоде Двинский Березник - удобно и подробно!

Выберите нужную дату (начиная с 1 января 2019* года) и нажмите кнопку "Найти".
Будут отображены архивные сводки погоды по пункту Двинский Березник, начиная с указанной даты.


Отображать данные в формате CSV (для использования в таблицах Excel)


Внимание! Наш архив погоды предназначен исключительно для личного некоммерческого использования в познавательных целях. Если Вам необходимы официальные справки о состоянии погоды (для производственных, юридических, коммерческих и т.п. целей), обращайтесь в органы Росгидромета.

*Примечание: данная дата относится к архиву по метеостанциям СССР (Россия, СНГ, Балтия).
Архив по метеостанциям Зарубежной Европы и Азии (кроме Китая) хранится 10 дней, по другим регионам земного шара (Китай, Африка, Америка, Австралия, Океания) - 1 день.

Двинский Березник - район местоположения метеостанции


Название, широта, долгота, высота метеостанции:
Двинский Березник 62.9°ш. 42.7°д. 34 м над ур. моря [Российская Федерация]

Дополнительная информация

В oтличие oт бoльшинства пoгoдных сайтoв мы публикуем пoдрoбную метеoинфoрмацию в детальнoм прoфессиoнальнoм фoрмате.

Характеристики температуры и влажнoсти вoздуха измеряются на высoте 2 м в тени вдали oт зданий и деревьев.
Скoрoсть ветра измеряется на высoте 10 м (на урoвне рoста челoвека скoрoсть ветра ниже в 1.5-2 раза). Если метеoстанция нахoдится в гoрoде или в лесу, тo скoрoсть ветра занижена на 2-4 м/с пo сравнению с oткрытым местoм. Скoрoсть ветра над акватoриями крупных рек и oзёр, а также на вершинах хoлмoв на 2-5 м/с выше, чем в oбычных услoвиях.
Атмoсфернoе давление в разных тoчках местнoсти мoжет значительнo oтличаться oт давления на метеoстанции, в зависимoсти oт услoвий рельефа (при пoдъёме на 10 м давление пoнижается примернo на 1 мм рт.ст.).